Wind_Speed
21 23 19 18 15 15 16 15 14 15 16 15 15 16 16 15 14 14 14 14 16 17 17 18 17 17 16 16 15 15 14 11 6 3 3 11 13 8 6 11 8 12 16
25 27 26 23 20 14 14 13 15 16 17 17 17 18 17 17 17 17 17 18 18 17 17 18 17 15 16 17 15 14 13 11 9 7 6 4 7 7 8 7 7 6 7
17 23 24 22 15 13 14 13 14 14 17 19 18 18 19 19 19 17 17 17 17 16 16 17 14 14 14 15 15 13 12 9 9 9 9 8 7 5 6 5 5 4 5
6 6 15 15 14 13 14 14 15 15 16 16 16 16 16 18 18 18 17 16 16 16 15 15 14 14 14 14 13 13 12 10 10 10 11 11 9 9 8 4 4 4 6
4 4 8 10 9 12 11 12 12 13 13 14 14 13 14 16 16 17 16 17 16 14 14 14 13 13 13 11 11 12 12 12 12 11 10 11 12 12 12 12 13 11 9
10 6 10 10 14 13 12 11 12 13 14 15 14 14 14 14 14 15 15 15 14 13 14 15 15 15 14 13 12 12 12 13 14 14 14 14 15 15 15 14 13 13 11
11 7 14 21 19 18 18 17 15 14 15 16 17 17 16 16 15 14 15 14 14 15 15 17 17 17 16 16 16 15 15 14 15 16 16 16 17 18 18 16 16 16 15
8 9 8 12 13 10 18 19 19 18 19 19 20 21 21 16 17 17 17 17 17 17 17 18 19 19 20 18 18 18 17 18 18 18 17 19 19 20 19 18 18 18 19
13 12 11 11 9 12 17 15 14 18 20 22 24 24 23 23 22 21 23 23 21 21 20 21 22 22 23 20 22 22 20 20 19 21 20 20 21 21 21 21 20 20 18
22 19 17 14 18 20 21 22 24 25 22 24 24 23 26 27 28 27 27 28 28 26 24 24 26 25 26 24 25 25 23 20 22 23 22 19 21 22 22 22 21 22 22
29 27 23 19 21 23 22 24 28 31 32 31 29 31 29 30 34 33 34 35 35 34 31 29 31 31 32 29 29 29 26 23 22 24 22 22 20 21 21 23 24 24 23
31 30 29 31 32 30 30 31 30 32 36 34 32 32 35 33 32 34 33 35 37 38 39 37 35 32 45 42 35 30 29 28 25 24 22 21 21 23 24 24 26 27 28
41 38 36 37 40 40 39 39 37 37 37 35 36 33 33 36 34 32 33 32 29 33 38 38 32 46 55 34 49 34 29 28 27 25 23 22 22 24 25 26 28 29 30
48 48 45 46 45 45 47 47 42 42 40 39 38 34 32 32 32 32 29 28 24 22 24 22 26 26 33 35 35 32 24 20 24 23 24 24 31 36 35 32 29 27 27
51 52 52 54 53 54 51 48 45 43 40 39 37 35 31 29 27 25 26 26 22 25 26 29 33 30 32 33 35 27 22 25 23 23 28 33 30 25 25 23 23 22 22
58 59 59 59 58 56 54 52 48 45 42 38 36 35 30 29 29 27 28 26 27 30 34 33 34 27 25 27 36 36 33 39 45 40 40 18 19 23 24 23 21 23 24
59 65 70 68 63 61 58 56 51 47 46 40 36 35 32 28 30 28 28 28 29 32 36 35 32 24 21 19 17 19 27 19 18 18 16 17 20 22 21 21 21 22 23
48 56 63 67 73 67 62 57 52 48 47 43 36 35 35 31 30 29 27 30 31 31 35 36 31 24 21 17 17 19 16 14 14 17 16 17 19 19 18 18 19 19 20
35 40 44 53 68 66 65 58 54 50 48 43 38 31 34 34 30 29 29 30 31 33 37 37 30 22 19 18 20 14 15 15 16 16 17 17 17 16 15 16 17 18 20
37 37 37 38 43 55 58 58 54 49 45 41 34 30 32 33 29 27 27 27 30 33 36 33 26 20 19 20 16 17 17 16 16 17 17 15 13 14 16 17 18 19 21
38 34 33 34 35 38 45 49 50 46 41 36 31 29 30 30 29 26 26 26 31 32 31 28 23 20 20 17 17 18 17 17 17 16 14 14 15 16 17 19 20 21 22
40 34 30 33 35 38 43 45 47 44 39 32 30 27 29 30 29 26 27 27 29 31 28 26 23 19 17 17 17 17 18 17 16 14 14 16 17 18 20 22 22 22 23
46 41 41 42 39 39 41 43 44 42 36 32 29 26 29 30 28 28 27 30 27 27 25 25 22 19 17 15 16 18 16 16 14 14 15 17 19 21 21 22 23 24 25
49 49 47 43 42 42 44 42 39 36 35 32 29 27 28 28 26 22 23 29 28 27 26 25 23 21 18 21 20 15 14 14 14 15 18 20 20 21 22 23 24 25 27
48 48 47 45 47 48 43 44 40 35 34 31 30 28 26 26 24 26 26 28 28 24 23 19 17 17 17 16 14 14 13 13 16 17 18 19 20 22 23 24 26 27 28
35 22 40 42 40 44 47 40 36 35 35 33 31 29 27 25 26 27 29 28 26 22 16 15 17 16 15 14 12 12 14 15 16 17 18 20 20 22 24 25 26 28 29
Wind_Direction
243 215 221 218 208 218 234 231 236 246 246 247 254 260 263 268 268 265 262 265 270 274 278 288 289 289 295 297 298 294 288 287 279 271 24 20 20 227 247 278 237 256 250
245 225 260 241 223 223 227 231 234 241 246 249 250 258 263 266 268 269 268 266 269 273 280 288 291 292 301 302 300 293 288 281 261 264 269 305 32 43 27 10 25 336 285
265 211 222 213 215 229 232 235 241 246 249 252 252 257 262 265 266 267 270 271 274 277 283 285 291 300 301 293 303 293 284 282 277 271 279 284 289 298 37 22 331 7 322
35 170 201 208 212 218 228 231 240 247 250 251 253 252 255 256 257 261 265 273 282 291 290 295 302 304 302 305 299 291 287 281 279 280 284 286 288 283 276 297 348 305 309
10 316 256 236 220 226 237 242 246 255 249 250 248 251 252 253 256 260 266 270 277 284 282 284 285 285 286 292 294 285 282 279 277 274 277 282 284 289 287 281 274 278 285
296 250 217 226 226 223 226 237 241 250 261 273 271 273 266 261 257 264 267 272 271 267 265 271 278 278 281 278 276 271 273 272 272 276 277 283 285 289 286 287 288 293 293
287 277 219 255 207 223 224 231 240 250 264 271 277 277 278 278 269 258 259 259 257 255 261 268 271 274 274 274 276 273 272 267 262 266 272 273 275 280 288 288 286 288 288
289 303 291 289 315 292 241 236 255 256 264 276 279 275 272 271 273 272 272 261 259 261 264 269 273 276 277 277 278 280 277 275 273 269 268 269 273 278 283 281 281 282 287
275 289 284 281 285 268 261 269 274 259 269 275 276 270 268 269 264 264 266 274 272 274 275 277 280 281 281 285 282 283 284 280 273 272 274 275 277 277 281 286 288 284 280
284 283 280 271 266 263 263 268 277 287 284 291 292 284 263 259 261 264 265 267 268 272 275 277 276 273 274 273 276 275 272 273 276 280 282 278 277 278 279 281 281 283 288
273 281 290 286 274 266 267 268 269 280 291 292 288 287 282 264 259 260 257 262 267 269 268 268 273 283 285 274 273 271 274 270 267 269 274 279 278 277 278 281 281 281 281
268 264 274 279 281 278 279 279 277 282 291 288 286 281 279 278 268 258 258 259 257 265 270 269 270 282 296 283 266 264 264 266 265 265 263 269 275 281 284 285 285 282 282
272 270 269 270 273 277 281 284 286 285 285 286 283 282 274 270 270 267 259 254 256 261 262 269 278 290 285 270 258 247 247 257 259 258 260 264 269 273 278 288 282 280 280
270 273 274 276 276 278 279 281 281 281 282 281 282 280 278 273 272 269 260 252 256 251 256 264 268 259 269 270 239 238 230 241 255 253 261 281 278 280 275 272 278 282 281
263 264 268 271 276 278 280 280 278 279 280 283 281 277 275 271 271 266 258 246 240 245 244 246 248 243 262 269 245 233 236 236 256 276 292 292 282 279 277 279 278 278 274
261 261 263 264 266 269 270 273 277 280 278 279 281 273 267 266 264 262 258 242 238 238 239 243 250 253 261 267 253 258 258 260 252 269 273 270 283 278 275 273 272 268 269
261 260 259 261 257 260 262 265 268 272 278 283 280 273 266 259 258 258 257 246 241 243 240 242 242 250 254 236 240 247 252 248 240 245 275 284 278 275 274 275 275 276 279
269 262 258 256 254 253 256 258 262 266 273 281 274 267 263 260 257 255 253 246 244 243 247 246 238 245 240 230 246 245 257 243 259 274 284 282 273 272 271 272 273 274 278
285 281 271 264 251 249 249 250 256 261 268 273 271 261 256 258 255 254 253 244 243 246 242 238 235 239 233 243 245 242 236 256 269 279 277 270 273 273 273 275 278 282 284
284 291 290 277 252 243 245 244 249 254 263 264 265 258 253 254 252 249 247 239 244 243 238 237 238 243 240 236 236 235 255 265 272 275 272 271 277 282 284 284 284 285 286
281 278 281 280 254 245 241 238 242 248 256 262 255 254 252 253 248 244 240 235 240 240 239 238 243 237 228 226 234 252 264 269 271 270 277 286 288 287 288 288 288 288 289
278 273 266 261 256 239 234 237 240 246 253 251 246 250 251 250 242 236 235 227 235 233 242 235 235 223 227 235 247 257 264 266 266 274 280 282 287 288 288 290 294 296 297
270 264 264 256 248 240 233 235 240 244 247 239 240 247 247 246 234 235 233 222 225 227 227 224 215 225 234 248 262 260 259 258 266 273 278 282 284 288 292 295 297 299 301
275 263 257 255 242 241 236 233 235 237 233 231 235 243 245 241 228 238 225 214 215 216 211 213 216 224 228 238 243 247 254 262 270 276 281 285 289 294 298 298 300 302 302
272 262 257 241 237 232 232 233 231 228 229 230 233 239 243 216 218 213 221 208 207 211 220 217 223 229 233 237 241 246 257 269 279 284 288 293 297 297 298 301 302 301 301
284 263 240 235 231 224 224 224 224 229 231 228 229 235 220 207 209 199 196 200 207 208 202 218 238 233 231 234 245 261 273 278 283 290 293 295 298 300 301 302 305 307 308
Height
3207 3210 3212 3212 3211 3213 3217 3216 3218 3221 3222 3221 3223 3224 3225 3225 3225 3225 3225 3226 3225 3224 3224 3223 3224 3223 3221 3221 3220 3219 3218 3217 3216 3215 3215 3213 3209 3209 3210 3210 3208 3211 3212
3205 3202 3204 3211 3210 3210 3213 3213 3214 3216 3218 3218 3218 3220 3221 3222 3221 3221 3221 3222 3221 3220 3220 3221 3222 3220 3219 3218 3218 3217 3216 3216 3215 3214 3214 3213 3212 3212 3210 3209 3207 3209 3209
3195 3190 3199 3204 3205 3206 3209 3210 3211 3212 3214 3214 3215 3216 3217 3218 3217 3217 3217 3218 3217 3217 3218 3218 3218 3217 3217 3217 3216 3215 3215 3214 3214 3213 3213 3213 3212 3212 3210 3209 3208 3208 3208
3194 3196 3197 3199 3201 3203 3205 3206 3206 3208 3209 3210 3210 3211 3212 3213 3213 3213 3213 3214 3214 3214 3215 3214 3214 3214 3214 3214 3214 3213 3213 3213 3213 3212 3212 3212 3212 3211 3210 3208 3207 3205 3206
3191 3193 3196 3198 3199 3200 3201 3204 3205 3206 3206 3205 3206 3206 3206 3208 3209 3209 3210 3211 3211 3211 3211 3210 3209 3208 3210 3210 3210 3210 3210 3210 3210 3210 3210 3210 3210 3209 3208 3208 3206 3203 3203
3193 3192 3194 3195 3197 3198 3200 3200 3202 3203 3202 3202 3203 3202 3202 3203 3204 3205 3205 3206 3206 3206 3206 3207 3208 3205 3205 3205 3206 3205 3205 3206 3207 3207 3207 3207 3207 3207 3206 3205 3204 3203 3202
3191 3190 3189 3189 3188 3190 3193 3198 3199 3199 3199 3199 3198 3198 3199 3200 3200 3199 3200 3200 3200 3200 3202 3203 3204 3202 3202 3203 3203 3202 3201 3201 3201 3201 3203 3203 3202 3201 3201 3201 3200 3200 3199
3189 3186 3186 3182 3177 3181 3188 3194 3196 3195 3194 3195 3194 3194 3194 3194 3195 3195 3196 3196 3196 3197 3198 3199 3200 3199 3199 3199 3199 3199 3198 3198 3197 3196 3197 3197 3197 3197 3196 3196 3195 3195 3195
3186 3187 3185 3185 3185 3187 3188 3188 3189 3190 3189 3189 3189 3187 3188 3189 3189 3190 3190 3192 3193 3194 3195 3196 3196 3196 3196 3196 3195 3195 3195 3194 3192 3192 3193 3193 3192 3191 3191 3191 3191 3190 3190
3180 3181 3183 3183 3183 3183 3182 3182 3181 3181 3181 3181 3181 3180 3180 3182 3182 3184 3184 3185 3187 3188 3189 3189 3188 3189 3189 3191 3190 3189 3188 3188 3188 3188 3188 3188 3187 3185 3185 3184 3184 3185 3185
3173 3172 3173 3175 3176 3176 3175 3174 3173 3172 3171 3171 3171 3171 3171 3173 3174 3175 3175 3177 3179 3180 3181 3182 3181 3183 3184 3183 3184 3184 3184 3183 3182 3181 3181 3180 3180 3181 3180 3179 3178 3177 3177
3163 3163 3163 3163 3163 3164 3164 3163 3163 3163 3162 3161 3161 3162 3162 3162 3164 3166 3167 3167 3170 3170 3172 3173 3173 3175 3180 3178 3173 3175 3176 3176 3175 3174 3175 3174 3174 3173 3174 3173 3171 3170 3169
3152 3152 3153 3153 3154 3153 3153 3153 3152 3153 3153 3153 3152 3151 3152 3151 3153 3156 3157 3157 3160 3163 3164 3166 3169 3168 3166 3160 3155 3159 3161 3164 3166 3165 3166 3166 3165 3166 3166 3165 3164 3162 3161
3143 3142 3142 3141 3141 3142 3142 3143 3143 3143 3143 3143 3143 3142 3141 3141 3141 3144 3147 3148 3149 3150 3154 3157 3157 3154 3150 3144 3143 3147 3151 3153 3157 3158 3158 3157 3158 3158 3157 3156 3156 3154 3154
3132 3131 3131 3130 3130 3130 3130 3132 3133 3133 3134 3133 3133 3133 3133 3132 3132 3132 3134 3137 3140 3142 3143 3142 3143 3142 3140 3136 3138 3137 3140 3143 3148 3151 3151 3149 3150 3148 3148 3148 3147 3146 3146
3117 3117 3117 3117 3118 3118 3118 3120 3122 3123 3122 3122 3123 3122 3124 3124 3123 3124 3125 3128 3131 3133 3132 3132 3132 3132 3130 3128 3130 3132 3136 3136 3138 3141 3145 3144 3142 3143 3141 3140 3138 3139 3138
3097 3098 3098 3097 3102 3104 3105 3107 3109 3111 3111 3112 3112 3112 3113 3115 3114 3115 3116 3118 3121 3123 3123 3123 3124 3123 3122 3123 3125 3127 3128 3129 3134 3137 3135 3135 3135 3135 3134 3133 3132 3132 3131
3078 3076 3075 3075 3078 3085 3089 3092 3095 3098 3100 3101 3101 3103 3103 3104 3104 3104 3107 3108 3110 3113 3114 3115 3115 3117 3117 3120 3123 3124 3126 3128 3129 3128 3129 3129 3129 3128 3127 3126 3125 3124 3124
3060 3057 3055 3053 3056 3064 3071 3077 3080 3085 3088 3090 3090 3092 3092 3092 3094 3095 3097 3099 3102 3104 3107 3108 3111 3113 3114 3115 3118 3119 3122 3122 3123 3123 3123 3124 3123 3122 3121 3120 3120 3118 3117
3047 3045 3041 3036 3036 3044 3052 3060 3066 3072 3076 3077 3079 3081 3082 3082 3085 3087 3089 3092 3094 3096 3099 3102 3106 3107 3108 3110 3113 3115 3116 3117 3117 3118 3118 3117 3116 3115 3115 3114 3114 3112 3111
3033 3031 3029 3028 3028 3032 3039 3046 3053 3060 3064 3066 3068 3071 3072 3073 3075 3078 3081 3084 3086 3089 3094 3097 3100 3101 3103 3106 3109 3111 3111 3111 3111 3111 3111 3110 3110 3110 3109 3109 3108 3105 3104
3017 3017 3016 3019 3021 3023 3028 3034 3041 3048 3052 3055 3058 3061 3062 3064 3067 3070 3073 3077 3081 3085 3088 3092 3095 3096 3098 3101 3103 3104 3105 3106 3105 3104 3104 3105 3105 3104 3104 3103 3100 3098 3095
3000 3000 3001 3005 3008 3012 3017 3023 3029 3036 3041 3045 3048 3051 3053 3055 3059 3062 3065 3070 3074 3078 3082 3085 3088 3091 3094 3096 3098 3099 3099 3100 3099 3099 3100 3100 3100 3099 3097 3094 3091 3089 3086
2978 2977 2979 2984 2991 2998 3005 3011 3018 3024 3029 3033 3038 3041 3044 3049 3053 3056 3060 3064 3069 3073 3077 3080 3083 3086 3088 3092 3093 3093 3094 3094 3095 3095 3095 3095 3093 3090 3088 3086 3083 3081 3078
2950 2951 2955 2961 2970 2982 2991 2999 3007 3013 3018 3023 3029 3033 3038 3043 3048 3051 3056 3061 3065 3069 3073 3075 3079 3082 3084 3086 3087 3088 3088 3089 3089 3089 3088 3087 3085 3083 3081 3078 3076 3074 3071
2925 2925 2930 2940 2950 2963 2977 2988 2996 3002 3008 3013 3019 3026 3032 3038 3043 3048 3052 3056 3060 3063 3068 3072 3075 3077 3079 3081 3082 3083 3083 3083 3083 3082 3082 3081 3078 3076 3073 3071 3067 3063 3060